Location: Culleoka
(33.1312°N, 96.4919°W)
Time: 13:41:03
(UTC+00:00)

Cosmos 1500 Rocket - Pass Details

Date: 06 July 2022
Orbit: 602 x 631 km, 82.5° (Epoch: 07 August)

Event Time Altitude Azimuth Distance (km) Brightness Sun altitude
Exits shadow 10:21:38 10° 270° (W) 1,975 5.7 -11.7°
Maximum altitude 10:22:55 12° 287° (WNW) 1,904 5.7 -11.4°
Drops below altitude 10° 10:24:26 10° 307° (NW) 2,009 6.0 -11.2°
Sets 10:28:16 0° 341° (NNW) 2,926 7.3 -10.5°
